ONEWEB-0312 (49098 NORAD) Tracking and Keplerian Element Data

This shows tracking and keplerian element data for the satellite.

Feedback or suggestion? Click here.




ElementValue
Catalog49098
NameONEWEB-0312
Epoch Orbit560
Epoch Day262.16668981
Epoch Year2021
RAAN356.4493
Inclination87.4222
Eccentricity0.0021844
Argument of Perigee193.355
Mean Anonmoly331.3154
Mean Motion15.15057765
Decay Rate-0.00887314
L11 49098U 21075Z 21262.16668981 -.00887314 00000-0 -50787-1 0 9994
L22 49098 87.4222 356.4493 0021844 193.3550 331.3154 15.15057765 5609

Live tracking and technical data element details for ONEWEB-0312 (NORAD 49098). ONEWEB-0312 can be tracked NOW for your location showing map with azimuth and elevation plus other details from your city location.

Track the satellite on the map from your city or location and see movement details for azimuth, elevation, latitude, longitude, range, height, and movement on the map or in text.







IsCatalogInMostPopularTable: catalog: 49098, numindb: 5
Update: records affected: 1



GetName: 49098 ONEWEB-0312

Hit Count: updated at: Fri, 24 Sep 2021 18:04:20 GMT